Le nostre stazioni meteo in Italia

Pubblicità
Il mio iltempo24.it
Chiavari, Italia (16123): Temperatura & dewpoint: 15.04.2019 09:00:00 - 21.04.2019 09:00:00 (CEST)Chiavari, Italia (16123): velocità del vento: 15.04.2019 09:00:00 - 21.04.2019 09:00:00 (CEST)Chiavari, Italia (16123): direzione del vento: 15.04.2019 09:00:00 - 21.04.2019 09:00:00 (CEST)Chiavari, Italia (16123): reduced air pressure: 15.04.2019 09:00:00 - 21.04.2019 09:00:00 (CEST)
Data & Tempo tt [°C] td [°C] ff [km/h] ff [kn] dd ppp [hPa]
21.04.2019 09:00:00 - - - - - -
21.04.2019 08:00:00 13,8 2,6 18 10 NNE 1019,9
21.04.2019 07:00:00 12,6 2,6 18 10 NNE 1020,1
21.04.2019 06:00:00 12,6 2,9 11 6 NE 1020,7
21.04.2019 05:00:00 12,9 3,7 5 3 NNE 1021,2
21.04.2019 04:00:00 14,2 3,0 4 2 NE 1021,5
21.04.2019 03:00:00 15,5 1,9 4 2 NNE 1021,3
21.04.2019 02:00:00 16,6 2,1 13 7 NNE 1021,5
21.04.2019 01:00:00 17,6 2,3 16 9 NNE 1021,7
21.04.2019 00:00:00 18,3 1,7 13 7 N 1021,7
20.04.2019 23:00:00 19,0 1,8 13 7 N 1021,7
20.04.2019 22:00:00 19,3 2,5 11 6 NNE 1022,0
20.04.2019 21:00:00 18,1 3,5 9 5 E 1021,8
20.04.2019 20:00:00 20,1 3,7 2 1 NE 1021,7
20.04.2019 19:00:00 20,8 0,0 4 2 OSO 1021,9
20.04.2019 18:00:00 21,7 -0,4 8 4 SSO 1022,2
20.04.2019 17:00:00 21,9 -0,2 9 5 SSO 1022,3
20.04.2019 16:00:00 22,3 -0,5 11 6 SSO 1023,4
20.04.2019 15:00:00 23,2 -0,4 9 5 OSO 1024,2
20.04.2019 14:00:00 22,8 -0,1 13 7 SSO 1024,7
20.04.2019 13:00:00 21,0 1,7 9 5 S 1024,9
20.04.2019 12:00:00 21,0 2,2 15 8 SSO 1025,2
20.04.2019 11:00:00 21,8 -0,9 11 6 ENE 1025,5
20.04.2019 10:00:00 20,4 -1,5 13 7 ENE 1025,9
20.04.2019 09:00:00 14,1 3,7 13 7 NE 1026,0
20.04.2019 08:00:00 11,2 3,6 11 6 NNE 1026,0
20.04.2019 07:00:00 11,3 3,5 16 9 N 1025,7
20.04.2019 06:00:00 11,9 3,3 15 8 NNO 1025,2
20.04.2019 05:00:00 12,8 3,1 11 6 N 1025,3
20.04.2019 04:00:00 13,0 3,3 11 6 N 1025,5
20.04.2019 03:00:00 13,7 2,8 16 9 N 1025,6
20.04.2019 02:00:00 14,0 2,8 16 9 NNE 1026,2
20.04.2019 01:00:00 12,7 4,1 16 9 N 1026,5
20.04.2019 00:00:00 13,6 3,6 18 10 NNE 1026,8
19.04.2019 23:00:00 14,3 3,6 22 12 N 1026,8
19.04.2019 22:00:00 14,9 3,9 15 8 NNE 1026,8
19.04.2019 21:00:00 16,3 3,3 4 2 NNO 1026,5
19.04.2019 20:00:00 19,1 2,4 0 0 N 1026,2
19.04.2019 19:00:00 20,1 0,4 5 3 S 1026,3
19.04.2019 18:00:00 20,1 1,4 9 5 SSO 1026,4
19.04.2019 17:00:00 19,9 3,1 11 6 SO 1026,5
19.04.2019 16:00:00 19,8 7,8 13 7 SO 1026,8
19.04.2019 15:00:00 19,7 8,3 11 6 SSO 1027,3
19.04.2019 14:00:00 22,8 6,1 11 6 ESE 1027,1
19.04.2019 13:00:00 22,9 0,6 16 9 NNE 1027,1
19.04.2019 12:00:00 22,1 1,6 11 6 NNE 1027,4
19.04.2019 11:00:00 21,0 1,7 13 7 NNE 1027,6
19.04.2019 10:00:00 18,0 4,1 8 4 NE 1027,5
19.04.2019 09:00:00 14,0 3,6 11 6 NNE 1027,3
19.04.2019 08:00:00 11,1 3,3 9 5 NNE 1027,2
19.04.2019 07:00:00 10,8 3,0 8 4 N 1026,5
19.04.2019 06:00:00 11,5 2,9 9 5 N 1025,9
19.04.2019 05:00:00 11,9 2,3 11 6 N 1025,4
19.04.2019 04:00:00 12,6 2,4 13 7 NNE 1025,0
19.04.2019 03:00:00 14,1 2,9 16 9 NNE 1024,9
19.04.2019 02:00:00 16,2 2,1 18 10 N 1025,1
19.04.2019 01:00:00 17,0 2,1 16 9 N 1024,8
19.04.2019 00:00:00 16,3 2,9 9 5 N 1024,3
18.04.2019 23:00:00 17,3 4,8 4 2 N 1023,7
18.04.2019 22:00:00 18,8 3,7 13 7 NNE 1023,1
18.04.2019 21:00:00 17,3 3,8 15 8 N 1022,6
18.04.2019 20:00:00 20,4 2,2 2 1 N 1022,1
18.04.2019 19:00:00 - - - - - -
18.04.2019 18:00:00 22,0 -2,0 8 4 OSO 1021,5
18.04.2019 17:00:00 21,8 -1,5 8 4 S 1021,6
18.04.2019 16:00:00 21,9 -2,8 8 4 SO 1021,8
18.04.2019 15:00:00 21,8 -2,9 8 4 S 1022,0
18.04.2019 14:00:00 21,7 -2,3 8 4 SSO 1022,2
18.04.2019 13:00:00 21,9 -2,1 11 6 SSO 1022,5
18.04.2019 12:00:00 21,7 -1,6 13 7 OSO 1022,8
18.04.2019 11:00:00 19,2 4,8 4 2 S 1022,6
18.04.2019 10:00:00 14,7 3,4 9 5 NNE 1022,6
18.04.2019 09:00:00 11,0 3,9 9 5 N 1022,6
18.04.2019 08:00:00 8,6 4,4 13 7 ENE 1022,4
18.04.2019 07:00:00 8,5 4,5 9 5 NE 1021,8
18.04.2019 06:00:00 8,8 5,5 15 8 ENE 1021,5
18.04.2019 05:00:00 9,0 5,3 13 7 E 1021,5
18.04.2019 04:00:00 9,7 6,7 15 8 NE 1021,4
18.04.2019 03:00:00 10,6 7,4 18 10 NNE 1021,2
18.04.2019 02:00:00 10,7 8,1 15 8 NE 1021,6
18.04.2019 01:00:00 11,5 8,9 15 8 NNE 1021,4
18.04.2019 00:00:00 12,0 9,4 13 7 NNE 1021,0
17.04.2019 23:00:00 12,8 10,0 11 6 NE 1020,9
17.04.2019 22:00:00 13,7 10,5 5 3 NNE 1020,7
17.04.2019 21:00:00 15,5 11,6 2 1 ENE 1020,1
17.04.2019 20:00:00 16,2 12,3 5 3 SSO 1019,6
17.04.2019 19:00:00 16,8 11,0 8 4 S 1019,6
17.04.2019 18:00:00 17,5 9,8 8 4 SSO 1019,8
17.04.2019 17:00:00 17,1 9,2 5 3 S 1019,9
17.04.2019 16:00:00 17,6 11,8 11 6 SO 1020,0
17.04.2019 15:00:00 17,3 11,9 9 5 SO 1020,2
17.04.2019 14:00:00 17,0 11,4 9 5 S 1020,5
17.04.2019 13:00:00 16,4 10,9 11 6 SO 1020,7
17.04.2019 12:00:00 16,1 10,8 9 5 SSO 1020,9
17.04.2019 11:00:00 15,8 11,7 9 5 SO 1020,8
17.04.2019 10:00:00 13,1 7,7 2 1 ENE 1020,7
17.04.2019 09:00:00 10,1 7,3 9 5 NNE 1020,7
17.04.2019 08:00:00 8,3 6,4 11 6 NE 1020,7
17.04.2019 07:00:00 8,3 6,4 13 7 NE 1020,2
17.04.2019 06:00:00 8,6 6,5 11 6 NE 1019,9
17.04.2019 05:00:00 8,7 6,6 13 7 E 1019,9
17.04.2019 04:00:00 9,0 7,1 15 8 NE 1020,1
17.04.2019 03:00:00 - - - - - -
17.04.2019 02:00:00 9,7 7,8 11 6 NNE 1020,3
17.04.2019 01:00:00 10,5 8,1 4 2 NNE 1020,2
17.04.2019 00:00:00 - - - - - -
16.04.2019 23:00:00 12,1 9,4 5 3 NE 1020,0
16.04.2019 22:00:00 - - - - - -
16.04.2019 21:00:00 - - - - - -
16.04.2019 20:00:00 15,8 11,5 2 1 OSO 1019,0
16.04.2019 19:00:00 - - - - - -
16.04.2019 18:00:00 15,9 11,4 8 4 SSE 1018,9
16.04.2019 17:00:00 16,8 10,1 9 5 O 1019,0
16.04.2019 16:00:00 16,6 9,9 11 6 SSO 1019,0
16.04.2019 15:00:00 16,7 8,8 11 6 S 1019,4
16.04.2019 14:00:00 17,4 7,1 11 6 SO 1019,4
16.04.2019 13:00:00 17,2 6,9 9 5 SO 1019,4
16.04.2019 12:00:00 16,7 5,2 9 5 SSO 1019,2
16.04.2019 11:00:00 16,6 4,2 5 3 SO 1019,0
16.04.2019 10:00:00 13,2 4,0 8 4 NE 1019,1
16.04.2019 09:00:00 9,9 5,2 13 7 ENE 1019,4
16.04.2019 08:00:00 7,9 4,6 15 8 ENE 1019,2
16.04.2019 07:00:00 7,6 4,5 15 8 NE 1018,9
16.04.2019 06:00:00 7,9 4,4 11 6 NE 1018,6
16.04.2019 05:00:00 8,2 4,7 15 8 E 1018,7
16.04.2019 04:00:00 8,9 4,8 13 7 ENE 1018,6
16.04.2019 03:00:00 9,1 5,2 11 6 NE 1018,8
16.04.2019 02:00:00 9,4 5,5 11 6 E 1019,4
16.04.2019 01:00:00 10,6 4,9 13 7 ENE 1019,2
16.04.2019 00:00:00 11,4 5,9 15 8 NE 1018,9
15.04.2019 23:00:00 12,8 4,7 15 8 NNE 1018,6
15.04.2019 22:00:00 13,8 3,7 13 7 N 1018,5
15.04.2019 21:00:00 16,1 3,1 9 5 NNE 1018,2
15.04.2019 20:00:00 17,9 1,7 9 5 N 1017,7
15.04.2019 19:00:00 18,0 4,5 4 2 ONO 1017,4
15.04.2019 18:00:00 - - - - - -
15.04.2019 17:00:00 18,3 5,4 9 5 SO 1017,6
15.04.2019 16:00:00 19,4 3,5 9 5 S 1017,7
15.04.2019 15:00:00 19,5 1,8 9 5 NE 1017,8
15.04.2019 14:00:00 18,8 2,5 15 8 E 1018,0
15.04.2019 13:00:00 18,2 1,1 16 9 NE 1017,9
15.04.2019 12:00:00 17,3 2,0 22 12 ENE 1017,9
15.04.2019 11:00:00 16,8 2,3 21 11 NE 1017,8
15.04.2019 10:00:00 16,0 2,7 24 13 NE 1017,5
15.04.2019 09:00:00 14,9 2,3 15 8 N 1017,1

tt = Temperatura
td = dewpoint
ff = velocità del vento
dd = direzione del vento
ppp = reduced air pressure

Stazioni seguenti

WeatherPro
AMSI
MeteoEarth